• In Österreich
  • Länderverzeichnis
  • Für 7 Tage
  • Wassertemperatur
  • Satellitenkarten
  • Wetterkarte
  • News
  • Widgets
  • user-avatar
    Anmelden

    Stündliche Wetter Kengtung

    Heute, 23 Januar, Dienstag

    Zeit Temperatur Niederschläge Wind Luftdruck Luftfeuchtigkeit
    00:00 +13°C° 0 mm 0 m/S 699 mmHg 71%
    01:00 +13°C° 0 mm 0 m/S 699 mmHg 73%
    02:00 +12°C° 0 mm 0 m/S 699 mmHg 75%
    03:00 +12°C° 0 mm 0 m/S 699 mmHg 76%
    04:00 +12°C° 0 mm 0 m/S 699 mmHg 78%
    05:00 +11°C° 0 mm 0 m/S 699 mmHg 79%
    06:00 +11°C° 0 mm 0 m/S 699 mmHg 80%
    07:00 +11°C° 0 mm 0 m/S 699 mmHg 81%
    08:00 +14°C° 0 mm 0 m/S 700 mmHg 69%
    09:00 +18°C° 0 mm 0 m/S 701 mmHg 58%
    10:00 +22°C° 0 mm 0 m/S 701 mmHg 46%
    11:00 +24°C° 0 mm 0 m/S 701 mmHg 40%
    12:00 +27°C° 0 mm 1 m/S 700 mmHg 34%
    13:00 +29°C° 0 mm 1 m/S 700 mmHg 27%
    14:00 +29°C° 0 mm 1 m/S 699 mmHg 28%
    15:00 +28°C° 0 mm 1 m/S 699 mmHg 29%
    16:00 +28°C° 0 mm 1 m/S 698 mmHg 29%
    17:00 +25°C° 0 mm 1 m/S 698 mmHg 38%
    18:00 +20°C° 0 mm 0 m/S 698 mmHg 47%
    19:00 +16°C° 0 mm 0 m/S 698 mmHg 56%
    20:00 +15°C° 0 mm 0 m/S 698 mmHg 57%
    21:00 +15°C° 0 mm 0 m/S 699 mmHg 59%
    22:00 +14°C° 0 mm 0 m/S 699 mmHg 60%
    23:00 +14°C° 0 mm 0 m/S 699 mmHg 61%

    Morgen, 24 Januar, Mittwoch

    Zeit Temperatur Niederschläge Wind Luftdruck Luftfeuchtigkeit
    00:00 +13°C° 0 mm 0 m/S 699 mmHg 63%
    01:00 +13°C° 0 mm 0 m/S 699 mmHg 64%
    02:00 +12°C° 0 mm 0 m/S 699 mmHg 65%
    03:00 +12°C° 0 mm 0 m/S 699 mmHg 67%
    04:00 +11°C° 0 mm 0 m/S 698 mmHg 68%
    05:00 +11°C° 0 mm 0 m/S 698 mmHg 70%
    06:00 +11°C° 0 mm 0 m/S 699 mmHg 71%
    07:00 +10°C° 0 mm 0 m/S 699 mmHg 73%
    08:00 +14°C° 0 mm 0 m/S 699 mmHg 63%
    09:00 +18°C° 0 mm 0 m/S 700 mmHg 53%
    10:00 +22°C° 0 mm 0 m/S 701 mmHg 43%
    11:00 +24°C° 0 mm 0 m/S 700 mmHg 38%
    12:00 +27°C° 0 mm 1 m/S 700 mmHg 32%
    13:00 +29°C° 0 mm 1 m/S 700 mmHg 27%
    14:00 +29°C° 0 mm 1 m/S 699 mmHg 28%
    15:00 +29°C° 0 mm 1 m/S 698 mmHg 28%
    16:00 +29°C° 0 mm 1 m/S 697 mmHg 29%
    17:00 +25°C° 0 mm 1 m/S 697 mmHg 38%
    18:00 +22°C° 0 mm 1 m/S 697 mmHg 47%
    19:00 +16°C° 0 mm 0 m/S 697 mmHg 56%
    20:00 +16°C° 0 mm 0 m/S 697 mmHg 57%
    21:00 +15°C° 0 mm 0 m/S 698 mmHg 58%
    22:00 +14°C° 0 mm 0 m/S 698 mmHg 59%
    23:00 +14°C° 0 mm 0 m/S 698 mmHg 60%

    übermorgen, 25 Januar, Donnerstag

    Zeit Temperatur Niederschläge Wind Luftdruck Luftfeuchtigkeit
    00:00 +13°C° 0 mm 0 m/S 698 mmHg 61%
    01:00 +13°C° 0 mm 0 m/S 698 mmHg 61%
    02:00 +12°C° 0 mm 0 m/S 697 mmHg 62%
    03:00 +12°C° 0 mm 0 m/S 697 mmHg 63%
    04:00 +12°C° 0 mm 0 m/S 697 mmHg 64%
    05:00 +11°C° 0 mm 0 m/S 697 mmHg 65%
    06:00 +11°C° 0 mm 0 m/S 697 mmHg 66%
    07:00 +11°C° 0 mm 0 m/S 697 mmHg 67%
    08:00 +15°C° 0 mm 0 m/S 699 mmHg 59%
    09:00 +18°C° 0 mm 0 m/S 700 mmHg 50%
    10:00 +22°C° 0 mm 0 m/S 701 mmHg 41%
    11:00 +24°C° 0 mm 0 m/S 700 mmHg 36%
    12:00 +28°C° 0 mm 1 m/S 700 mmHg 31%
    13:00 +29°C° 0 mm 1 m/S 699 mmHg 25%
    14:00 +29°C° 0 mm 1 m/S 698 mmHg 26%
    15:00 +29°C° 0 mm 1 m/S 698 mmHg 27%
    16:00 +28°C° 0 mm 1 m/S 697 mmHg 28%
    17:00 +25°C° 0 mm 1 m/S 697 mmHg 37%
    18:00 +20°C° 0 mm 0 m/S 697 mmHg 46%
    19:00 +17°C° 0 mm 0 m/S 697 mmHg 55%
    20:00 +16°C° 0 mm 0 m/S 698 mmHg 56%
    21:00 +15°C° 0 mm 0 m/S 698 mmHg 58%
    22:00 +15°C° 0 mm 0 m/S 699 mmHg 59%
    23:00 +14°C° 0 mm 0 m/S 699 mmHg 60%

    26 Januar, Freitag

    Zeit Temperatur Niederschläge Wind Luftdruck Luftfeuchtigkeit
    00:00 +14°C° 0 mm 0 m/S 699 mmHg 62%
    01:00 +13°C° 0 mm 0 m/S 699 mmHg 63%
    02:00 +13°C° 0 mm 0 m/S 698 mmHg 64%
    03:00 +12°C° 0 mm 0 m/S 698 mmHg 66%
    04:00 +12°C° 0 mm 0 m/S 698 mmHg 67%
    05:00 +12°C° 0 mm 0 m/S 698 mmHg 68%
    06:00 +11°C° 0 mm 0 m/S 698 mmHg 70%
    07:00 +11°C° 0 mm 0 m/S 699 mmHg 71%
    08:00 +15°C° 0 mm 0 m/S 700 mmHg 61%
    09:00 +19°C° 0 mm 0 m/S 700 mmHg 51%
    10:00 +23°C° 0 mm 0 m/S 701 mmHg 42%
    11:00 +24°C° 0 mm 0 m/S 701 mmHg 38%
    12:00 +28°C° 0 mm 1 m/S 700 mmHg 33%
    13:00 +30°C° 0 mm 1 m/S 699 mmHg 29%
    14:00 +30°C° 0 mm 1 m/S 699 mmHg 30%
    15:00 +29°C° 0 mm 1 m/S 698 mmHg 30%
    16:00 +29°C° 0 mm 1 m/S 697 mmHg 31%
    17:00 +26°C° 0 mm 1 m/S 697 mmHg 40%
    18:00 +23°C° 0 mm 1 m/S 697 mmHg 49%
    19:00 +18°C° 0 mm 0 m/S 697 mmHg 59%
    20:00 +17°C° 0 mm 0 m/S 698 mmHg 60%
    21:00 +16°C° 0 mm 0 m/S 698 mmHg 62%
    22:00 +16°C° 0 mm 0 m/S 699 mmHg 64%
    23:00 +15°C° 0 mm 0 m/S 698 mmHg 66%

    27 Januar, Samstag

    Zeit Temperatur Niederschläge Wind Luftdruck Luftfeuchtigkeit
    00:00 +15°C° 0 mm 0 m/S 698 mmHg 68%
    01:00 +14°C° 0 mm 0 m/S 698 mmHg 70%
    02:00 +14°C° 0 mm 0 m/S 698 mmHg 72%
    03:00 +13°C° 0 mm 0 m/S 697 mmHg 75%
    04:00 +13°C° 0 mm 0 m/S 697 mmHg 77%
    05:00 +13°C° 0 mm 0 m/S 697 mmHg 79%
    06:00 +12°C° 0 mm 0 m/S 698 mmHg 81%
    07:00 +12°C° 0 mm 0 m/S 698 mmHg 83%
    08:00 +16°C° 0 mm 0 m/S 699 mmHg 71%
    09:00 +19°C° 0 mm 0 m/S 700 mmHg 59%
    10:00 +23°C° 0 mm 0 m/S 700 mmHg 47%
    11:00 +27°C° 0 mm 1 m/S 700 mmHg 41%
    12:00 +28°C° 0 mm 1 m/S 699 mmHg 36%
    13:00 +29°C° 0 mm 2 m/S 698 mmHg 30%
    14:00 +29°C° 0 mm 2 m/S 698 mmHg 32%
    15:00 +29°C° 0 mm 2 m/S 697 mmHg 33%
    16:00 +29°C° 0 mm 2 m/S 696 mmHg 34%
    17:00 +26°C° 0 mm 1 m/S 696 mmHg 44%
    18:00 +23°C° 0 mm 1 m/S 696 mmHg 53%
    19:00 +18°C° 0 mm 0 m/S 696 mmHg 63%
    20:00 +17°C° 0 mm 0 m/S 697 mmHg 66%
    21:00 +16°C° 0 mm 0 m/S 697 mmHg 69%
    22:00 +15°C° 0 mm 0 m/S 697 mmHg 72%
    23:00 +15°C° 0 mm 0 m/S 697 mmHg 75%

    28 Januar, Sonntag

    Zeit Temperatur Niederschläge Wind Luftdruck Luftfeuchtigkeit
    00:00 +14°C° 0 mm 0 m/S 697 mmHg 78%
    01:00 +13°C° 0 mm 0 m/S 697 mmHg 81%
    02:00 +13°C° 0 mm 0 m/S 697 mmHg 81%
    03:00 +12°C° 0 mm 0 m/S 697 mmHg 82%
    04:00 +12°C° 0 mm 0 m/S 697 mmHg 82%
    05:00 +12°C° 0 mm 0 m/S 697 mmHg 83%
    06:00 +11°C° 0 mm 0 m/S 697 mmHg 83%
    07:00 +11°C° 0 mm 0 m/S 698 mmHg 83%
    08:00 +15°C° 0 mm 0 m/S 698 mmHg 69%
    09:00 +19°C° 0 mm 0 m/S 699 mmHg 56%
    10:00 +23°C° 0 mm 0 m/S 700 mmHg 42%
    11:00 +26°C° 0 mm 1 m/S 700 mmHg 36%
    12:00 +28°C° 0 mm 1 m/S 699 mmHg 30%
    13:00 +29°C° 0 mm 1 m/S 699 mmHg 24%
    14:00 +29°C° 0 mm 1 m/S 698 mmHg 25%
    15:00 +29°C° 0 mm 1 m/S 698 mmHg 26%
    16:00 +28°C° 0 mm 1 m/S 697 mmHg 26%
    17:00 +25°C° 0 mm 1 m/S 697 mmHg 35%
    18:00 +22°C° 0 mm 1 m/S 697 mmHg 43%
    19:00 +17°C° 0 mm 0 m/S 697 mmHg 52%
    20:00 +16°C° 0 mm 0 m/S 698 mmHg 53%
    21:00 +15°C° 0 mm 0 m/S 698 mmHg 55%
    22:00 +14°C° 0 mm 0 m/S 698 mmHg 56%
    23:00 +14°C° 0 mm 0 m/S 698 mmHg 58%
    Mehr zeigen